TimeMST,TemperatureF,Dew PointF,Humidity,Sea Level PressureIn,VisibilityMPH,Wind Direction,Wind SpeedMPH,Gust SpeedMPH,PrecipitationIn,Events,Conditions,WindDirDegrees,DateUTC
12:57 AM,15.1,12.0,88,30.24,10.0,WSW,3.5,-,N/A,,Clear,240,2012-02-29 07:57:00
1:57 AM,12.0,10.0,92,30.25,10.0,West,3.5,-,N/A,,Clear,260,2012-02-29 08:57:00
2:57 AM,12.0,9.0,88,30.23,10.0,Calm,Calm,-,N/A,,Clear,0,2012-02-29 09:57:00
3:57 AM,9.0,6.1,88,30.23,10.0,Calm,Calm,-,N/A,,Clear,0,2012-02-29 10:57:00
4:57 AM,9.0,6.1,88,30.22,10.0,Calm,Calm,-,N/A,,Clear,0,2012-02-29 11:57:00
5:57 AM,10.9,8.1,88,30.21,10.0,Calm,Calm,-,N/A,,Clear,0,2012-02-29 12:57:00
6:57 AM,10.0,6.1,84,30.24,10.0,Calm,Calm,-,N/A,,Clear,0,2012-02-29 13:57:00
7:57 AM,14.0,10.9,88,30.24,10.0,NW,3.5,-,N/A,,Clear,310,2012-02-29 14:57:00
8:57 AM,27.0,21.9,81,30.19,10.0,SW,3.5,-,N/A,,Clear,230,2012-02-29 15:57:00
9:57 AM,30.0,18.0,61,30.19,10.0,SW,11.5,-,N/A,,Clear,220,2012-02-29 16:57:00
10:57 AM,35.1,14.0,42,30.17,10.0,SSW,11.5,-,N/A,,Clear,210,2012-02-29 17:57:00
11:57 AM,39.9,3.0,21,30.15,10.0,WSW,17.3,24.2,N/A,,Clear,240,2012-02-29 18:57:00
12:57 PM,41.0,10.9,29,30.12,10.0,SW,16.1,21.9,N/A,,Clear,230,2012-02-29 19:57:00
1:57 PM,42.1,10.0,27,30.10,10.0,SW,20.7,27.6,N/A,,Clear,230,2012-02-29 20:57:00
2:57 PM,42.1,12.9,31,30.09,10.0,WSW,16.1,27.6,N/A,,Clear,250,2012-02-29 21:57:00
3:57 PM,41.0,14.0,33,30.10,10.0,WSW,20.7,34.5,N/A,,Clear,250,2012-02-29 22:57:00
4:57 PM,39.9,18.0,41,30.10,10.0,SW,20.7,28.8,N/A,,Clear,230,2012-02-29 23:57:00
5:57 PM,37.9,18.0,45,30.10,10.0,WSW,9.2,-,N/A,,Clear,240,2012-03-01 00:57:00
6:57 PM,36.0,17.1,46,30.12,10.0,WSW,10.4,18.4,N/A,,Clear,250,2012-03-01 01:57:00
7:57 PM,35.1,18.0,50,30.10,10.0,WSW,15.0,23.0,N/A,,Clear,240,2012-03-01 02:57:00
8:57 PM,33.1,18.0,54,30.05,10.0,WSW,6.9,-,N/A,,Clear,240,2012-03-01 03:57:00
9:57 PM,28.9,18.0,64,30.05,10.0,SSW,6.9,-,N/A,,Clear,210,2012-03-01 04:57:00
10:57 PM,28.0,17.1,63,30.04,10.0,SSW,5.8,-,N/A,,Clear,210,2012-03-01 05:57:00
11:57 PM,27.0,17.1,66,30.00,10.0,WSW,5.8,-,N/A,,Clear,250,2012-03-01 06:57:00